When you browse on this site, cookies collect data to enhance your experience and personalize the content and advertising you see.
Visit our Privacy Policy to learn more. By continuing to use the site, you agree to this use of cookies and data.
  • In Lithuania
  • List of Countries
  • For 7 days
  • Water Temperature
  • Weather Map
  • Weather Widgets
  • user-avatar
    Login

    Hourly Weather Krnov

    Today, 23 September, Monday

    Time Temperature Precipitation Wind Pressure Humidity
    00:00 +12°C° 0 mm 1 mps 731 mmHg 60%
    01:00 +12°C° 0 mm 1 mps 731 mmHg 61%
    02:00 +12°C° 0 mm 1 mps 731 mmHg 64%
    03:00 +11°C° 0 mm 1 mps 731 mmHg 66%
    04:00 +11°C° 0 mm 1 mps 730 mmHg 69%
    05:00 +12°C° 0 mm 1 mps 731 mmHg 68%
    06:00 +13°C° 0 mm 1 mps 731 mmHg 68%
    07:00 +13°C° 0 mm 1 mps 731 mmHg 68%
    08:00 +15°C° 0 mm 1 mps 731 mmHg 64%
    09:00 +16°C° 0 mm 1 mps 731 mmHg 60%
    10:00 +19°C° 0 mm 1 mps 731 mmHg 56%
    11:00 +19°C° 0 mm 1 mps 731 mmHg 56%
    12:00 +19°C° 0 mm 1 mps 731 mmHg 55%
    13:00 +20°C° 0 mm 1 mps 731 mmHg 54%
    14:00 +20°C° 0 mm 1 mps 731 mmHg 56%
    15:00 +20°C° 0 mm 1 mps 731 mmHg 57%
    16:00 +20°C° 0 mm 1 mps 731 mmHg 59%
    17:00 +18°C° 0 mm 1 mps 731 mmHg 63%
    18:00 +16°C° 0 mm 1 mps 731 mmHg 68%
    19:00 +15°C° 0 mm 1 mps 731 mmHg 72%
    20:00 +14°C° 0 mm 1 mps 731 mmHg 74%
    21:00 +14°C° 0 mm 1 mps 732 mmHg 75%
    22:00 +13°C° 0 mm 1 mps 732 mmHg 77%
    23:00 +13°C° 0 mm 1 mps 732 mmHg 78%

    Tomorrow, 24 September, Tuesday

    Time Temperature Precipitation Wind Pressure Humidity
    00:00 +13°C° 0 mm 1 mps 732 mmHg 79%
    01:00 +13°C° 0 mm 1 mps 732 mmHg 80%
    02:00 +12°C° 0 mm 1 mps 732 mmHg 82%
    03:00 +11°C° 0 mm 0 mps 731 mmHg 83%
    04:00 +11°C° 0 mm 0 mps 731 mmHg 85%
    05:00 +11°C° 0 mm 0 mps 731 mmHg 83%
    06:00 +12°C° 0 mm 0 mps 731 mmHg 81%
    07:00 +13°C° 0 mm 0 mps 732 mmHg 79%
    08:00 +14°C° 0 mm 0 mps 732 mmHg 73%
    09:00 +18°C° 0 mm 1 mps 732 mmHg 66%
    10:00 +20°C° 0 mm 1 mps 732 mmHg 60%
    11:00 +21°C° 0 mm 1 mps 731 mmHg 58%
    12:00 +21°C° 0 mm 1 mps 731 mmHg 55%
    13:00 +22°C° 0 mm 1 mps 731 mmHg 53%
    14:00 +22°C° 0.1 mm 1 mps 731 mmHg 54%
    15:00 +22°C° 0.1 mm 1 mps 730 mmHg 56%
    16:00 +22°C° 0.1 mm 1 mps 730 mmHg 57%
    17:00 +20°C° 0 mm 1 mps 730 mmHg 63%
    18:00 +18°C° 0 mm 1 mps 729 mmHg 68%
    19:00 +15°C° 0 mm 1 mps 729 mmHg 74%
    20:00 +15°C° 0 mm 1 mps 729 mmHg 75%
    21:00 +15°C° 0 mm 1 mps 729 mmHg 76%
    22:00 +15°C° 0 mm 1 mps 729 mmHg 76%
    23:00 +15°C° 0.2 mm 1 mps 729 mmHg 78%

    Day after tomorrow, 25 September, Wednesday

    Time Temperature Precipitation Wind Pressure Humidity
    00:00 +15°C° 0.2 mm 2 mps 729 mmHg 80%
    01:00 +15°C° 0.2 mm 2 mps 728 mmHg 82%
    02:00 +15°C° 0.2 mm 2 mps 728 mmHg 84%
    03:00 +14°C° 0.2 mm 2 mps 728 mmHg 86%
    04:00 +14°C° 0.2 mm 2 mps 728 mmHg 88%
    05:00 +14°C° 0 mm 2 mps 728 mmHg 88%
    06:00 +14°C° 0 mm 2 mps 727 mmHg 87%
    07:00 +14°C° 0 mm 3 mps 727 mmHg 86%
    08:00 +16°C° 0 mm 3 mps 727 mmHg 80%
    09:00 +17°C° 0 mm 4 mps 728 mmHg 75%
    10:00 +18°C° 0 mm 4 mps 728 mmHg 70%
    11:00 +18°C° 0.3 mm 4 mps 727 mmHg 71%
    12:00 +17°C° 0.3 mm 5 mps 727 mmHg 71%
    13:00 +17°C° 0.3 mm 5 mps 727 mmHg 72%
    14:00 +17°C° 0.3 mm 5 mps 727 mmHg 73%
    15:00 +17°C° 0.3 mm 5 mps 727 mmHg 73%
    16:00 +18°C° 0.3 mm 4 mps 727 mmHg 73%
    17:00 +17°C° 0.1 mm 4 mps 727 mmHg 76%
    18:00 +16°C° 0.1 mm 3 mps 727 mmHg 79%
    19:00 +14°C° 0.1 mm 3 mps 727 mmHg 82%
    20:00 +13°C° 0 mm 3 mps 728 mmHg 82%
    21:00 +13°C° 0 mm 3 mps 728 mmHg 81%
    22:00 +13°C° 0 mm 4 mps 728 mmHg 81%
    23:00 +12°C° 0 mm 3 mps 729 mmHg 82%

    26 September, Thursday

    Time Temperature Precipitation Wind Pressure Humidity
    00:00 +12°C° 0 mm 3 mps 729 mmHg 83%
    01:00 +12°C° 0 mm 3 mps 729 mmHg 84%
    02:00 +11°C° 0 mm 3 mps 729 mmHg 85%
    03:00 +12°C° 0 mm 2 mps 729 mmHg 86%
    04:00 +10°C° 0 mm 2 mps 729 mmHg 87%
    05:00 +12°C° 0 mm 2 mps 730 mmHg 86%
    06:00 +12°C° 0 mm 2 mps 730 mmHg 85%
    07:00 +13°C° 0 mm 2 mps 730 mmHg 84%
    08:00 +14°C° 0 mm 2 mps 730 mmHg 79%
    09:00 +15°C° 0 mm 2 mps 731 mmHg 74%
    10:00 +16°C° 0 mm 2 mps 731 mmHg 69%
    11:00 +17°C° 0.1 mm 2 mps 731 mmHg 66%
    12:00 +18°C° 0.1 mm 2 mps 731 mmHg 64%
    13:00 +18°C° 0.1 mm 3 mps 731 mmHg 62%
    14:00 +18°C° 0.1 mm 2 mps 731 mmHg 65%
    15:00 +17°C° 0.1 mm 2 mps 731 mmHg 68%
    16:00 +17°C° 0.1 mm 2 mps 731 mmHg 71%
    17:00 +16°C° 0 mm 2 mps 731 mmHg 77%
    18:00 +14°C° 0 mm 2 mps 732 mmHg 82%
    19:00 +13°C° 0 mm 1 mps 732 mmHg 87%
    20:00 +13°C° 0 mm 1 mps 732 mmHg 88%
    21:00 +13°C° 0 mm 1 mps 732 mmHg 88%
    22:00 +12°C° 0 mm 1 mps 733 mmHg 89%
    23:00 +12°C° 0 mm 2 mps 733 mmHg 89%

    27 September, Friday

    Time Temperature Precipitation Wind Pressure Humidity
    00:00 +12°C° 0 mm 2 mps 733 mmHg 90%
    01:00 +12°C° 0 mm 2 mps 733 mmHg 90%
    02:00 +12°C° 0 mm 2 mps 733 mmHg 91%
    03:00 +12°C° 0 mm 2 mps 733 mmHg 91%
    04:00 +12°C° 0 mm 2 mps 733 mmHg 91%
    05:00 +12°C° 0 mm 2 mps 733 mmHg 90%
    06:00 +13°C° 0 mm 2 mps 733 mmHg 88%
    07:00 +13°C° 0 mm 2 mps 733 mmHg 87%
    08:00 +14°C° 0 mm 3 mps 733 mmHg 82%
    09:00 +16°C° 0 mm 3 mps 733 mmHg 77%
    10:00 +18°C° 0 mm 3 mps 733 mmHg 72%
    11:00 +19°C° 0 mm 3 mps 733 mmHg 71%
    12:00 +19°C° 0 mm 3 mps 733 mmHg 69%
    13:00 +20°C° 0 mm 3 mps 732 mmHg 67%
    14:00 +20°C° 0 mm 3 mps 732 mmHg 68%
    15:00 +20°C° 0 mm 3 mps 732 mmHg 69%
    16:00 +19°C° 0 mm 3 mps 731 mmHg 71%
    17:00 +18°C° 0 mm 3 mps 731 mmHg 74%
    18:00 +17°C° 0 mm 3 mps 731 mmHg 77%
    19:00 +16°C° 0 mm 3 mps 731 mmHg 80%
    20:00 +16°C° 0 mm 3 mps 732 mmHg 78%
    21:00 +16°C° 0 mm 3 mps 732 mmHg 76%
    22:00 +16°C° 0 mm 3 mps 732 mmHg 75%
    23:00 +16°C° 0.4 mm 3 mps 732 mmHg 79%

    28 September, Saturday

    Time Temperature Precipitation Wind Pressure Humidity
    00:00 +16°C° 0.4 mm 3 mps 732 mmHg 83%
    01:00 +14°C° 0.4 mm 3 mps 732 mmHg 87%
    02:00 +15°C° 0.3 mm 2 mps 731 mmHg 88%
    03:00 +15°C° 0.3 mm 2 mps 731 mmHg 89%
    04:00 +14°C° 0.3 mm 2 mps 731 mmHg 90%
    05:00 +14°C° 0 mm 2 mps 731 mmHg 89%
    06:00 +14°C° 0 mm 3 mps 731 mmHg 87%
    07:00 +14°C° 0 mm 3 mps 731 mmHg 86%
    08:00 +16°C° 0 mm 3 mps 731 mmHg 81%
    09:00 +17°C° 0 mm 3 mps 731 mmHg 77%
    10:00 +18°C° 0 mm 3 mps 732 mmHg 73%
    11:00 +19°C° 0.1 mm 4 mps 731 mmHg 70%
    12:00 +19°C° 0.1 mm 5 mps 731 mmHg 66%
    13:00 +20°C° 0.1 mm 5 mps 731 mmHg 63%
    14:00 +19°C° 0.1 mm 5 mps 731 mmHg 67%
    15:00 +18°C° 0.1 mm 4 mps 731 mmHg 71%
    16:00 +17°C° 0.1 mm 4 mps 730 mmHg 75%
    17:00 +15°C° 0.4 mm 4 mps 731 mmHg 79%
    18:00 +14°C° 0.4 mm 4 mps 731 mmHg 83%
    19:00 +14°C° 0.4 mm 3 mps 731 mmHg 87%
    20:00 +14°C° 0.2 mm 3 mps 731 mmHg 87%
    21:00 +13°C° 0.2 mm 3 mps 731 mmHg 87%
    22:00 +13°C° 0.2 mm 3 mps 731 mmHg 87%
    23:00 +13°C° 0 mm 3 mps 731 mmHg 88%
    Show more